,,,PA_Meas_PMT16A,,PR_Meas_QMR101_102,,RH_Meas_QMH101,,SR_Meas_QMS101,,TA_Meas_QMH101,,GenWind,,GenWind,
date,time,status,PA,status,PR,status,RH,status,SR,status,TA,status,DirAvg,status,SpdAvg,
2009-06-20, 00:00:04,VALID,1009.86,VALID,0,VALID,90.1745,VALID,0,VALID,24.5301,VALID,23,VALID,0,
2009-06-20, 00:01:04,VALID,1009.84,VALID,0,VALID,90.1822,VALID,0,VALID,24.5301,VALID,23,VALID,0,
2009-06-20, 00:02:04,VALID,1009.84,VALID,0,VALID,90.1898,VALID,0,VALID,24.4911,VALID,23,VALID,0,
2009-06-20, 00:03:04,VALID,1009.84,VALID,0,VALID,90.1822,VALID,0,VALID,24.4911,VALID,23,VALID,0,
2009-06-20, 00:04:04,VALID,1009.85,VALID,0,VALID,90.1898,VALID,0,VALID,24.4911,VALID,23,VALID,0,
2009-06-20, 00:05:04,VALID,1009.86,VALID,0,VALID,90.2203,VALID,0,VALID,24.4911,VALID,23,VALID,0,
2009-06-20, 00:06:04,VALID,1009.87,VALID,0,VALID,90.2203,VALID,0,VALID,24.4735,VALID,23,VALID,0,
2009-06-20, 00:07:04,VALID,1009.85,VALID,0,VALID,90.2127,VALID,0,VALID,24.4327,VALID,23,VALID,0,
2009-06-20, 00:08:04,VALID,1009.84,VALID,0,VALID,90.2355,VALID,0,VALID,24.4327,VALID,23,VALID,0,
2009-06-20, 00:09:04,VALID,1009.82,VALID,0,VALID,90.2584,VALID,0,VALID,24.4132,VALID,23,VALID,0,
2009-06-20, 00:10:04,VALID,1009.83,VALID,0,VALID,90.2584,VALID,0,VALID,24.3937,VALID,23,VALID,0,
2009-06-20, 00:11:04,VALID,1009.81,VALID,0,VALID,90.2737,VALID,0,VALID,24.3937,VALID,23,VALID,0,
2009-06-20, 00:12:04,VALID,1009.82,VALID,0,VALID,90.2737,VALID,0,VALID,24.3956,VALID,23,VALID,0,
2009-06-20, 00:13:04,VALID,1009.81,VALID,0,VALID,90.3042,VALID,0,VALID,24.3547,VALID,23,VALID,0,
2009-06-20, 00:14:04,VALID,1009.81,VALID,0,VALID,90.3042,VALID,0,VALID,24.3547,VALID,23,VALID,0,
2009-06-20, 00:15:04,VALID,1009.8,VALID,0,VALID,90.3194,VALID,0,VALID,24.3566,VALID,23,VALID,0,
2009-06-20, 00:16:04,VALID,1009.8,VALID,0,VALID,90.3423,VALID,0,VALID,24.3761,VALID,23,VALID,0,
2009-06-20, 00:17:04,VALID,1009.77,VALID,0,VALID,90.3423,VALID,0,VALID,24.3566,VALID,23,VALID,0,
2009-06-20, 00:18:04,VALID,1009.77,VALID,0,VALID,90.3881,VALID,0,VALID,24.3352,VALID,23,VALID,0,
2009-06-20, 00:19:04,VALID,1009.74,VALID,0,VALID,90.3957,VALID,0,VALID,24.3352,VALID,23,VALID,0,
2009-06-20, 00:20:04,VALID,1009.76,VALID,0,VALID,90.4109,VALID,0,VALID,24.3566,VALID,23,VALID,0,
2009-06-20, 00:21:04,VALID,1009.75,VALID,0,VALID,90.4033,VALID,0,VALID,24.3158,VALID,23,VALID,0,
2009-06-20, 00:22:04,VALID,1009.71,VALID,0,VALID,90.4262,VALID,0,VALID,24.3158,VALID,23,VALID,0,
2009-06-20, 00:23:04,VALID,1009.73,VALID,0,VALID,90.4338,VALID,0,VALID,24.3176,VALID,23,VALID,0,
2009-06-20, 00:24:04,VALID,1009.74,VALID,0,VALID,90.4186,VALID,0,VALID,24.3176,VALID,23,VALID,0,
2009-06-20, 00:25:04,VALID,1009.73,VALID,0,VALID,90.4338,VALID,0,VALID,24.2963,VALID,23,VALID,0,
2009-06-20, 00:26:04,VALID,1009.74,VALID,0,VALID,90.4414,VALID,0,VALID,24.3176,VALID,23,VALID,0,
2009-06-20, 00:27:04,VALID,1009.69,VALID,0,VALID,90.4719,VALID,0,VALID,24.3176,VALID,23,VALID,0,
2009-06-20, 00:28:04,VALID,1009.67,VALID,0,VALID,90.4719,VALID,0,VALID,24.2768,VALID,23,VALID,0,
2009-06-20, 00:29:04,VALID,1009.67,VALID,0,VALID,90.4719,VALID,0,VALID,24.2768,VALID,23,VALID,0,
2009-06-20, 00:30:04,VALID,1009.63,VALID,0,VALID,90.4719,VALID,0,VALID,24.2786,VALID,23,VALID,0,
2009-06-20, 00:31:04,VALID,1009.64,VALID,0,VALID,90.4796,VALID,0,VALID,24.2981,VALID,23,VALID,0,
2009-06-20, 00:32:04,VALID,1009.65,VALID,0,VALID,90.4872,VALID,0,VALID,24.2981,VALID,23,VALID,0,
2009-06-20, 00:33:04,VALID,1009.66,VALID,0,VALID,90.5024,VALID,0,VALID,24.2768,VALID,23,VALID,0,
2009-06-20, 00:34:04,VALID,1009.64,VALID,0,VALID,90.5177,VALID,0,VALID,24.2768,VALID,23,VALID,0,
2009-06-20, 00:35:04,VALID,1009.65,VALID,0,VALID,90.5406,VALID,0,VALID,24.2768,VALID,23,VALID,0,
2009-06-20, 00:36:04,VALID,1009.64,VALID,0,VALID,90.5482,VALID,0,VALID,24.2981,VALID,23,VALID,0,
2009-06-20, 00:37:04,VALID,1009.62,VALID,0,VALID,90.5406,VALID,0,VALID,24.2963,VALID,23,VALID,0,
2009-06-20, 00:38:04,VALID,1009.6,VALID,0,VALID,90.5634,VALID,0,VALID,24.2768,VALID,23,VALID,0,
2009-06-20, 00:39:04,VALID,1009.61,VALID,0,VALID,90.5558,VALID,0,VALID,24.3176,VALID,23,VALID,0,
2009-06-20, 00:40:04,VALID,1009.6,VALID,0,VALID,90.5558,VALID,0,VALID,24.2768,VALID,23,VALID,0,
2009-06-20, 00:41:04,VALID,1009.58,VALID,0,VALID,90.5558,VALID,0,VALID,24.2768,VALID,23,VALID,0,
2009-06-20, 00:42:04,VALID,1009.58,VALID,0,VALID,90.5711,VALID,0,VALID,24.2786,VALID,23,VALID,0,
2009-06-20, 00:43:04,VALID,1009.62,VALID,0,VALID,90.5558,VALID,0,VALID,24.2573,VALID,23,VALID,0,
2009-06-20, 00:44:04,VALID,1009.57,VALID,0,VALID,90.5787,VALID,0,VALID,24.2573,VALID,23,VALID,0,
2009-06-20, 00:45:04,VALID,1009.57,VALID,0,VALID,90.5863,VALID,0,VALID,24.2573,VALID,23,VALID,0,
2009-06-20, 00:46:04,VALID,1009.58,VALID,0,VALID,90.5711,VALID,0,VALID,24.2378,VALID,23,VALID,0,
2009-06-20, 00:47:04,VALID,1009.58,VALID,0,VALID,90.5863,VALID,0,VALID,24.2378,VALID,23,VALID,0,
2009-06-20, 00:48:04,VALID,1009.55,VALID,0,VALID,90.5863,VALID,0,VALID,24.2591,VALID,23,VALID,0,
2009-06-20, 00:49:04,VALID,1009.54,VALID,0,VALID,90.6016,VALID,0,VALID,24.2378,VALID,23,VALID,0,
2009-06-20, 00:50:04,VALID,1009.55,VALID,0,VALID,90.6016,VALID,0,VALID,24.2183,VALID,23,VALID,0,
2009-06-20, 00:51:04,VALID,1009.54,VALID,0,VALID,90.5939,VALID,0,VALID,24.2183,VALID,23,VALID,0,
2009-06-20, 00:52:04,VALID,1009.54,VALID,0,VALID,90.5939,VALID,0,VALID,24.1988,VALID,23,VALID,0,
2009-06-20, 00:53:04,VALID,1009.52,VALID,0,VALID,90.5863,VALID,0,VALID,24.2202,VALID,23,VALID,0,
2009-06-20, 00:54:04,VALID,1009.5,VALID,0,VALID,90.6016,VALID,0.105969,VALID,24.1793,VALID,23,VALID,0,
2009-06-20, 00:55:04,VALID,1009.49,VALID,0,VALID,90.5939,VALID,0,VALID,24.1599,VALID,23,VALID,0,
2009-06-20, 00:56:04,VALID,1009.44,VALID,0,VALID,90.5863,VALID,0,VALID,24.1404,VALID,23,VALID,0,
2009-06-20, 00:57:04,VALID,1009.45,VALID,0,VALID,90.5939,VALID,0,VALID,24.1812,VALID,23,VALID,0,
2009-06-20, 00:58:04,VALID,1009.42,VALID,0,VALID,90.6168,VALID,0,VALID,24.1599,VALID,23,VALID,0,
2009-06-20, 00:59:04,VALID,1009.41,VALID,0,VALID,90.6016,VALID,0.105969,VALID,24.1404,VALID,23,VALID,0,
2009-06-20, 01:00:04,VALID,1009.41,VALID,0,VALID,90.6016,VALID,0,VALID,24.1599,VALID,23,VALID,0,
2009-06-20, 01:01:04,VALID,1009.39,VALID,0,VALID,90.6092,VALID,0,VALID,24.1812,VALID,23,VALID,0,
2009-06-20, 01:02:04,VALID,1009.4,VALID,0,VALID,90.6245,VALID,0,VALID,24.1812,VALID,23,VALID,0,
2009-06-20, 01:03:04,VALID,1009.39,VALID,0,VALID,90.6245,VALID,0,VALID,24.1812,VALID,23,VALID,0,
2009-06-20, 01:04:04,VALID,1009.4,VALID,0,VALID,90.6473,VALID,0,VALID,24.2007,VALID,23,VALID,0,
2009-06-20, 01:05:04,VALID,1009.38,VALID,0,VALID,90.6473,VALID,0,VALID,24.2202,VALID,23,VALID,0,
2009-06-20, 01:06:04,VALID,1009.38,VALID,0,VALID,90.6626,VALID,0,VALID,24.2202,VALID,23,VALID,0,
2009-06-20, 01:07:04,VALID,1009.36,VALID,0,VALID,90.6626,VALID,0,VALID,24.2202,VALID,23,VALID,0,
2009-06-20, 01:08:04,VALID,1009.37,VALID,0,VALID,90.6855,VALID,0,VALID,24.2202,VALID,23,VALID,0,
2009-06-20, 01:09:04,VALID,1009.35,VALID,0,VALID,90.6855,VALID,0,VALID,24.2007,VALID,23,VALID,0,
2009-06-20, 01:10:04,VALID,1009.34,VALID,0,VALID,90.6702,VALID,0,VALID,24.2202,VALID,23,VALID,0,
2009-06-20, 01:11:04,VALID,1009.32,VALID,0,VALID,90.7083,VALID,0,VALID,24.2202,VALID,23,VALID,0,
2009-06-20, 01:12:04,VALID,1009.33,VALID,0,VALID,90.6931,VALID,0,VALID,24.2202,VALID,23,VALID,0,
2009-06-20, 01:13:04,VALID,1009.31,VALID,0,VALID,90.7007,VALID,0,VALID,24.2202,VALID,23,VALID,0,
2009-06-20, 01:14:04,VALID,1009.29,VALID,0,VALID,90.7007,VALID,0,VALID,24.2007,VALID,23,VALID,0,
2009-06-20, 01:15:04,VALID,1009.28,VALID,0,VALID,90.7083,VALID,0,VALID,24.2007,VALID,23,VALID,0,
2009-06-20, 01:16:04,VALID,1009.27,VALID,0,VALID,90.716,VALID,0,VALID,24.1988,VALID,23,VALID,0,
2009-06-20, 01:17:04,VALID,1009.24,VALID,0,VALID,90.7007,VALID,0,VALID,24.2007,VALID,23,VALID,0,
2009-06-20, 01:18:04,VALID,1009.26,VALID,0,VALID,90.7083,VALID,0,VALID,24.1404,VALID,23,VALID,0,
2009-06-20, 01:19:04,VALID,1009.21,VALID,0,VALID,90.7083,VALID,0,VALID,24.1209,VALID,23,VALID,0,
2009-06-20, 01:20:04,VALID,1009.19,VALID,0,VALID,90.7465,VALID,0,VALID,24.1209,VALID,23,VALID,0,
2009-06-20, 01:21:04,VALID,1009.21,VALID,0,VALID,90.7312,VALID,0,VALID,24.1014,VALID,23,VALID,0,
2009-06-20, 01:22:04,VALID,1009.18,VALID,0,VALID,90.7312,VALID,0,VALID,24.1014,VALID,23,VALID,0,
2009-06-20, 01:23:04,VALID,1009.18,VALID,0,VALID,90.7083,VALID,0,VALID,24.0819,VALID,23,VALID,0,
2009-06-20, 01:24:04,VALID,1009.14,VALID,0,VALID,90.7236,VALID,0,VALID,24.0819,VALID,23,VALID,0,
2009-06-20, 01:25:04,VALID,1009.13,VALID,0,VALID,90.7236,VALID,0,VALID,24.0819,VALID,23,VALID,0,
2009-06-20, 01:26:04,VALID,1009.14,VALID,0,VALID,90.7236,VALID,0,VALID,24.0819,VALID,23,VALID,0,
2009-06-20, 01:27:04,VALID,1009.14,VALID,0,VALID,90.7312,VALID,0,VALID,24.0429,VALID,23,VALID,0,
2009-06-20, 01:28:04,VALID,1009.11,VALID,0,VALID,90.716,VALID,0.105969,VALID,24.0429,VALID,23,VALID,0,
2009-06-20, 01:29:04,VALID,1009.12,VALID,0,VALID,90.7388,VALID,0,VALID,24.004,VALID,23,VALID,0,
2009-06-20, 01:30:04,VALID,1009.09,VALID,0,VALID,90.7312,VALID,0,VALID,24.004,VALID,23,VALID,0,
2009-06-20, 01:31:04,VALID,1009.03,VALID,0,VALID,90.7465,VALID,0,VALID,24.0235,VALID,23,VALID,0,
2009-06-20, 01:32:04,VALID,1009.04,VALID,0,VALID,90.7541,VALID,0.105969,VALID,24.004,VALID,23,VALID,0,
2009-06-20, 01:33:04,VALID,1008.99,VALID,0,VALID,90.7312,VALID,0.105969,VALID,24.0235,VALID,23,VALID,0,
2009-06-20, 01:34:04,VALID,1008.97,VALID,0,VALID,90.7541,VALID,0,VALID,24.0235,VALID,23,VALID,0,
2009-06-20, 01:35:04,VALID,1008.97,VALID,0,VALID,90.7541,VALID,0,VALID,24.0235,VALID,23,VALID,0,
2009-06-20, 01:36:04,VALID,1008.95,VALID,0,VALID,90.7541,VALID,0,VALID,24.0448,VALID,23,VALID,0,
2009-06-20, 01:37:04,VALID,1008.97,VALID,0,VALID,90.7617,VALID,0,VALID,24.0429,VALID,23,VALID,0,
2009-06-20, 01:38:04,VALID,1008.97,VALID,0,VALID,90.777,VALID,0,VALID,24.0643,VALID,23,VALID,0,
2009-06-20, 01:39:04,VALID,1008.94,VALID,0,VALID,90.7617,VALID,0,VALID,24.0429,VALID,23,VALID,0,
2009-06-20, 01:40:04,VALID,1008.94,VALID,0,VALID,90.7846,VALID,0,VALID,24.0643,VALID,23,VALID,0,
2009-06-20, 01:41:04,VALID,1008.95,VALID,0,VALID,90.7922,VALID,0,VALID,24.0429,VALID,23,VALID,0,
2009-06-20, 01:42:04,VALID,1008.94,VALID,0,VALID,90.7998,VALID,0,VALID,24.0235,VALID,23,VALID,0,
2009-06-20, 01:43:04,VALID,1008.92,VALID,0,VALID,90.8075,VALID,0,VALID,24.0253,VALID,23,VALID,0,
2009-06-20, 01:44:04,VALID,1008.95,VALID,0,VALID,90.8151,VALID,0,VALID,23.9845,VALID,23,VALID,0,
2009-06-20, 01:45:04,VALID,1008.93,VALID,0,VALID,90.8075,VALID,0,VALID,23.9845,VALID,23,VALID,0,
2009-06-20, 01:46:04,VALID,1008.95,VALID,0,VALID,90.8227,VALID,0.105969,VALID,23.9863,VALID,23,VALID,0,
2009-06-20, 01:47:04,VALID,1008.94,VALID,0,VALID,90.8227,VALID,0,VALID,23.965,VALID,23,VALID,0,
2009-06-20, 01:48:04,VALID,1008.92,VALID,0,VALID,90.8075,VALID,0,VALID,23.965,VALID,23,VALID,0,
2009-06-20, 01:49:04,VALID,1008.91,VALID,0,VALID,90.8075,VALID,0.105969,VALID,23.9845,VALID,23,VALID,0,
2009-06-20, 01:50:04,VALID,1008.91,VALID,0,VALID,90.8075,VALID,0,VALID,23.9845,VALID,23,VALID,0,
2009-06-20, 01:51:04,VALID,1008.87,VALID,0,VALID,90.838,VALID,0,VALID,23.9845,VALID,23,VALID,0,
2009-06-20, 01:52:04,VALID,1008.86,VALID,0,VALID,90.8075,VALID,0,VALID,24.004,VALID,23,VALID,0,
2009-06-20, 01:53:04,VALID,1008.83,VALID,0,VALID,90.838,VALID,0,VALID,24.004,VALID,23,VALID,0,
2009-06-20, 01:54:04,VALID,1008.84,VALID,0,VALID,90.838,VALID,0,VALID,23.9845,VALID,23,VALID,0,
2009-06-20, 01:55:04,VALID,1008.84,VALID,0,VALID,90.8685,VALID,0.105969,VALID,23.9668,VALID,23,VALID,0,
2009-06-20, 01:56:04,VALID,1008.82,VALID,0,VALID,90.8761,VALID,0,VALID,23.8889,VALID,23,VALID,0,
2009-06-20, 01:57:04,VALID,1008.83,VALID,0,VALID,90.8532,VALID,0,VALID,23.8499,VALID,23,VALID,0,
2009-06-20, 01:58:04,VALID,1008.83,VALID,0,VALID,90.8685,VALID,0,VALID,23.8676,VALID,23,VALID,0,
2009-06-20, 01:59:04,VALID,1008.81,VALID,0,VALID,90.8532,VALID,0,VALID,23.8871,VALID,23,VALID,0,
2009-06-20, 02:00:04,VALID,1008.78,VALID,0,VALID,90.8837,VALID,0.105969,VALID,23.8676,VALID,23,VALID,0,
2009-06-20, 02:01:04,VALID,1008.8,VALID,0,VALID,90.8761,VALID,0.105969,VALID,23.8676,VALID,23,VALID,0,
2009-06-20, 02:02:04,VALID,1008.78,VALID,0,VALID,90.8685,VALID,0.105969,VALID,23.8481,VALID,23,VALID,0,
2009-06-20, 02:03:04,VALID,1008.8,VALID,0,VALID,90.899,VALID,0.105969,VALID,23.8694,VALID,23,VALID,0,
2009-06-20, 02:04:04,VALID,1008.78,VALID,0,VALID,90.899,VALID,0,VALID,23.8286,VALID,23,VALID,0,
2009-06-20, 02:05:04,VALID,1008.78,VALID,0,VALID,90.9066,VALID,0,VALID,23.8499,VALID,23,VALID,0,
2009-06-20, 02:06:04,VALID,1008.75,VALID,0,VALID,90.8914,VALID,0,VALID,23.8304,VALID,23,VALID,0,
2009-06-20, 02:07:04,VALID,1008.76,VALID,0,VALID,90.899,VALID,0,VALID,23.8286,VALID,23,VALID,0,
2009-06-20, 02:08:04,VALID,1008.73,VALID,0,VALID,90.9219,VALID,0,VALID,23.8286,VALID,23,VALID,0,
2009-06-20, 02:09:04,VALID,1008.71,VALID,0,VALID,90.9066,VALID,0.105969,VALID,23.8286,VALID,23,VALID,0,
2009-06-20, 02:10:04,VALID,1008.74,VALID,0,VALID,90.9219,VALID,0.105969,VALID,23.8286,VALID,23,VALID,0,
2009-06-20, 02:11:04,VALID,1008.71,VALID,0,VALID,90.9219,VALID,0,VALID,23.8286,VALID,23,VALID,0,
2009-06-20, 02:12:04,VALID,1008.72,VALID,0,VALID,90.9295,VALID,0,VALID,23.8286,VALID,23,VALID,0,
2009-06-20, 02:13:04,VALID,1008.73,VALID,0,VALID,90.9447,VALID,0.105969,VALID,23.8481,VALID,23,VALID,0,
2009-06-20, 02:14:04,VALID,1008.72,VALID,0,VALID,90.9447,VALID,0,VALID,23.8889,VALID,23,VALID,0,
2009-06-20, 02:15:04,VALID,1008.72,VALID,0,VALID,90.9447,VALID,0.105969,VALID,23.8676,VALID,23,VALID,0,
2009-06-20, 02:16:04,VALID,1008.76,VALID,0,VALID,90.9676,VALID,0.105969,VALID,23.8871,VALID,23,VALID,0,
2009-06-20, 02:17:04,VALID,1008.73,VALID,0,VALID,90.9524,VALID,0,VALID,23.8871,VALID,23,VALID,0,
2009-06-20, 02:18:04,VALID,1008.71,VALID,0,VALID,90.9524,VALID,0.105969,VALID,23.8871,VALID,23,VALID,0,
2009-06-20, 02:19:04,VALID,1008.67,VALID,0,VALID,90.96,VALID,0,VALID,23.8676,VALID,23,VALID,0,
2009-06-20, 02:20:04,VALID,1008.66,VALID,0,VALID,90.9524,VALID,0,VALID,23.8889,VALID,23,VALID,0,
2009-06-20, 02:21:04,VALID,1008.65,VALID,0,VALID,90.9752,VALID,0,VALID,23.8676,VALID,23,VALID,0,
2009-06-20, 02:22:04,VALID,1008.63,VALID,0,VALID,90.9752,VALID,0.105969,VALID,23.8481,VALID,23,VALID,0,
2009-06-20, 02:23:04,VALID,1008.63,VALID,0,VALID,90.9905,VALID,0,VALID,23.8481,VALID,23,VALID,0,
2009-06-20, 02:24:04,VALID,1008.62,VALID,0,VALID,90.9829,VALID,0,VALID,23.8481,VALID,23,VALID,0,
2009-06-20, 02:25:04,VALID,1008.57,VALID,0,VALID,90.96,VALID,0.105969,VALID,23.8268,VALID,23,VALID,0,
2009-06-20, 02:26:04,VALID,1008.59,VALID,0,VALID,90.9829,VALID,0.105969,VALID,23.8481,VALID,23,VALID,0,
2009-06-20, 02:27:04,VALID,1008.57,VALID,0,VALID,90.9905,VALID,0.105969,VALID,23.8286,VALID,23,VALID,0,
2009-06-20, 02:28:04,VALID,1008.55,VALID,0,VALID,90.9981,VALID,0,VALID,23.8286,VALID,23,VALID,0,
2009-06-20, 02:29:04,VALID,1008.51,VALID,0,VALID,91.0134,VALID,0.105969,VALID,23.8499,VALID,23,VALID,0,
2009-06-20, 02:30:04,VALID,1008.55,VALID,0,VALID,90.9981,VALID,0,VALID,23.8286,VALID,23,VALID,0,
2009-06-20, 02:31:04,VALID,1008.57,VALID,0,VALID,91.0057,VALID,0,VALID,23.8304,VALID,23,VALID,0,
2009-06-20, 02:32:04,VALID,1008.59,VALID,0,VALID,91.0134,VALID,0,VALID,23.8109,VALID,23,VALID,0,
2009-06-20, 02:33:04,VALID,1008.59,VALID,0,VALID,91.0057,VALID,0,VALID,23.7914,VALID,23,VALID,0,
2009-06-20, 02:34:04,VALID,1008.58,VALID,0,VALID,91.0286,VALID,0,VALID,23.772,VALID,23,VALID,0,
2009-06-20, 02:35:04,VALID,1008.59,VALID,0,VALID,91.0286,VALID,0,VALID,23.772,VALID,23,VALID,0,
2009-06-20, 02:36:04,VALID,1008.6,VALID,0,VALID,91.0286,VALID,0,VALID,23.7507,VALID,23,VALID,0,
2009-06-20, 02:37:04,VALID,1008.58,VALID,0,VALID,91.0286,VALID,0,VALID,23.772,VALID,23,VALID,0,
2009-06-20, 02:38:04,VALID,1008.58,VALID,0,VALID,91.0286,VALID,0,VALID,23.733,VALID,23,VALID,0,
2009-06-20, 02:39:04,VALID,1008.57,VALID,0,VALID,91.0286,VALID,0,VALID,23.7135,VALID,23,VALID,0,
2009-06-20, 02:40:04,VALID,1008.54,VALID,0,VALID,91.0362,VALID,0,VALID,23.7135,VALID,23,VALID,0,
2009-06-20, 02:41:04,VALID,1008.54,VALID,0,VALID,91.0515,VALID,0,VALID,23.694,VALID,23,VALID,0,
2009-06-20, 02:42:04,VALID,1008.55,VALID,0,VALID,91.0439,VALID,0,VALID,23.655,VALID,23,VALID,0,
2009-06-20, 02:43:04,VALID,1008.54,VALID,0,VALID,91.0515,VALID,0,VALID,23.6356,VALID,23,VALID,0,
2009-06-20, 02:44:04,VALID,1008.57,VALID,0,VALID,91.0362,VALID,0,VALID,23.6356,VALID,23,VALID,0,
2009-06-20, 02:45:04,VALID,1008.6,VALID,0,VALID,91.0286,VALID,0,VALID,23.6356,VALID,23,VALID,0,
2009-06-20, 02:46:04,VALID,1008.62,VALID,0,VALID,91.0439,VALID,0,VALID,23.6745,VALID,23,VALID,0,
2009-06-20, 02:47:04,VALID,1008.64,VALID,0,VALID,91.0439,VALID,0,VALID,23.6958,VALID,23,VALID,0,
2009-06-20, 02:48:04,VALID,1008.63,VALID,0,VALID,91.0515,VALID,0,VALID,23.655,VALID,23,VALID,0,
2009-06-20, 02:49:04,VALID,1008.58,VALID,0,VALID,91.0667,VALID,0,VALID,23.6356,VALID,23,VALID,0,
2009-06-20, 02:50:04,VALID,1008.56,VALID,0,VALID,91.0286,VALID,0,VALID,23.6161,VALID,23,VALID,0,
2009-06-20, 02:51:04,VALID,1008.56,VALID,0,VALID,91.0515,VALID,0,VALID,23.6179,VALID,23,VALID,0,
2009-06-20, 02:52:04,VALID,1008.58,VALID,0,VALID,91.0591,VALID,0,VALID,23.5966,VALID,23,VALID,0,
2009-06-20, 02:53:04,VALID,1008.54,VALID,0,VALID,91.0667,VALID,0,VALID,23.5771,VALID,23,VALID,0,
2009-06-20, 02:54:04,VALID,1008.54,VALID,0,VALID,91.0667,VALID,0,VALID,23.5576,VALID,23,VALID,0,
2009-06-20, 02:55:04,VALID,1008.54,VALID,0,VALID,91.0744,VALID,0,VALID,23.5789,VALID,23,VALID,0,
2009-06-20, 02:56:04,VALID,1008.57,VALID,0,VALID,91.0744,VALID,0,VALID,23.5363,VALID,23,VALID,0,
2009-06-20, 02:57:04,VALID,1008.58,VALID,0,VALID,91.0667,VALID,0,VALID,23.5576,VALID,23,VALID,0,
2009-06-20, 02:58:04,VALID,1008.62,VALID,0,VALID,91.0896,VALID,0,VALID,23.5576,VALID,23,VALID,0,
2009-06-20, 02:59:04,VALID,1008.65,VALID,0,VALID,91.0744,VALID,0,VALID,23.5753,VALID,7,VALID,0,
2009-06-20, 03:00:04,VALID,1008.67,VALID,0,VALID,91.082,VALID,0,VALID,23.5966,VALID,356,VALID,0,
2009-06-20, 03:01:04,VALID,1008.68,VALID,0,VALID,91.0973,VALID,0,VALID,23.6143,VALID,354,VALID,0,
2009-06-20, 03:02:04,VALID,1008.72,VALID,0,VALID,91.0744,VALID,0.105969,VALID,23.6143,VALID,354,VALID,0,
2009-06-20, 03:03:04,VALID,1008.72,VALID,0,VALID,91.082,VALID,0.105969,VALID,23.6143,VALID,354,VALID,0,
2009-06-20, 03:04:04,VALID,1008.71,VALID,0,VALID,91.0973,VALID,0,VALID,23.5948,VALID,354,VALID,0,
2009-06-20, 03:05:04,VALID,1008.72,VALID,0,VALID,91.0973,VALID,0,VALID,23.5948,VALID,354,VALID,0,
2009-06-20, 03:06:04,VALID,1008.71,VALID,0,VALID,91.082,VALID,0.105969,VALID,23.5948,VALID,354,VALID,0,
2009-06-20, 03:07:04,VALID,1008.69,VALID,0,VALID,91.1049,VALID,0.105969,VALID,23.554,VALID,354,VALID,0,
2009-06-20, 03:08:04,VALID,1008.74,VALID,0,VALID,91.1049,VALID,0.105969,VALID,23.554,VALID,354,VALID,0,
2009-06-20, 03:09:04,VALID,1008.75,VALID,0,VALID,91.082,VALID,0.105969,VALID,23.5558,VALID,354,VALID,0,
2009-06-20, 03:10:04,VALID,1008.78,VALID,0,VALID,91.1049,VALID,0.105969,VALID,23.5558,VALID,354,VALID,0,
2009-06-20, 03:11:04,VALID,1008.75,VALID,0,VALID,91.0896,VALID,0.105969,VALID,23.5753,VALID,354,VALID,0,
2009-06-20, 03:12:04,VALID,1008.73,VALID,0,VALID,91.082,VALID,0,VALID,23.5753,VALID,354,VALID,0,
2009-06-20, 03:13:04,VALID,1008.76,VALID,0,VALID,91.082,VALID,0.105969,VALID,23.6161,VALID,354,VALID,0,
2009-06-20, 03:14:04,VALID,1008.75,VALID,0,VALID,91.0973,VALID,0,VALID,23.5948,VALID,354,VALID,0,
2009-06-20, 03:15:04,VALID,1008.75,VALID,0,VALID,91.0896,VALID,0.105969,VALID,23.6143,VALID,354,VALID,0,
2009-06-20, 03:16:04,VALID,1008.75,VALID,0,VALID,91.0973,VALID,0,VALID,23.5948,VALID,354,VALID,0,
2009-06-20, 03:17:04,VALID,1008.73,VALID,0,VALID,91.0896,VALID,0.105969,VALID,23.6143,VALID,354,VALID,0,
2009-06-20, 03:18:04,VALID,1008.75,VALID,0,VALID,91.0896,VALID,0.105969,VALID,23.6143,VALID,354,VALID,0,
2009-06-20, 03:19:04,VALID,1008.73,VALID,0,VALID,91.0744,VALID,0.105969,VALID,23.6143,VALID,354,VALID,0,
2009-06-20, 03:20:04,VALID,1008.74,VALID,0,VALID,91.082,VALID,0,VALID,23.6338,VALID,354,VALID,0,
2009-06-20, 03:21:04,VALID,1008.76,VALID,0,VALID,91.0896,VALID,0,VALID,23.6745,VALID,354,VALID,0,
2009-06-20, 03:22:04,VALID,1008.73,VALID,0,VALID,91.0973,VALID,0,VALID,23.6745,VALID,354,VALID,0,
2009-06-20, 03:23:04,VALID,1008.76,VALID,0,VALID,91.0896,VALID,0.105969,VALID,23.6532,VALID,354,VALID,0,
2009-06-20, 03:24:04,VALID,1008.78,VALID,0,VALID,91.0896,VALID,0,VALID,23.655,VALID,354,VALID,0,
2009-06-20, 03:25:04,VALID,1008.79,VALID,0,VALID,91.0973,VALID,0.105969,VALID,23.6338,VALID,354,VALID,0,
2009-06-20, 03:26:04,VALID,1008.78,VALID,0,VALID,91.1125,VALID,0.105969,VALID,23.6338,VALID,354,VALID,0,
2009-06-20, 03:27:04,VALID,1008.76,VALID,0,VALID,91.1049,VALID,0.105969,VALID,23.6143,VALID,354,VALID,0,
2009-06-20, 03:28:04,VALID,1008.77,VALID,0,VALID,91.0973,VALID,0.105969,VALID,23.6143,VALID,354,VALID,0,
2009-06-20, 03:29:04,VALID,1008.77,VALID,0,VALID,91.0896,VALID,0,VALID,23.5948,VALID,354,VALID,0,
2009-06-20, 03:30:04,VALID,1008.74,VALID,0,VALID,91.0896,VALID,0.105969,VALID,23.5753,VALID,354,VALID,0,
2009-06-20, 03:31:04,VALID,1008.74,VALID,0,VALID,91.0896,VALID,0,VALID,23.5753,VALID,354,VALID,0,
2009-06-20, 03:32:04,VALID,1008.71,VALID,0,VALID,91.0896,VALID,0.105969,VALID,23.5753,VALID,354,VALID,0,
2009-06-20, 03:33:04,VALID,1008.73,VALID,0,VALID,91.0744,VALID,0.105969,VALID,23.5558,VALID,354,VALID,0,
2009-06-20, 03:34:04,VALID,1008.76,VALID,0,VALID,91.0744,VALID,0,VALID,23.5558,VALID,354,VALID,0,
2009-06-20, 03:35:04,VALID,1008.77,VALID,0,VALID,91.0896,VALID,0,VALID,23.5558,VALID,354,VALID,0,
2009-06-20, 03:36:04,VALID,1008.77,VALID,0,VALID,91.082,VALID,0.105969,VALID,23.5558,VALID,354,VALID,0,
2009-06-20, 03:37:04,VALID,1008.79,VALID,0,VALID,91.1049,VALID,0,VALID,23.5558,VALID,354,VALID,0,
2009-06-20, 03:38:04,VALID,1008.81,VALID,0,VALID,91.0744,VALID,0,VALID,23.5558,VALID,354,VALID,0,
2009-06-20, 03:39:04,VALID,1008.84,VALID,0,VALID,91.0896,VALID,0.105969,VALID,23.5558,VALID,354,VALID,0,
2009-06-20, 03:40:04,VALID,1008.85,VALID,0,VALID,91.082,VALID,0,VALID,23.5363,VALID,356,VALID,0,
2009-06-20, 03:41:04,VALID,1008.85,VALID,0,VALID,91.082,VALID,0.105969,VALID,23.5169,VALID,356,VALID,0,
2009-06-20, 03:42:04,VALID,1008.85,VALID,0,VALID,91.0744,VALID,0.105969,VALID,23.5169,VALID,356,VALID,0,
2009-06-20, 03:43:04,VALID,1008.83,VALID,0,VALID,91.0744,VALID,0,VALID,23.4974,VALID,356,VALID,0,
2009-06-20, 03:44:04,VALID,1008.81,VALID,0,VALID,91.082,VALID,0,VALID,23.4974,VALID,356,VALID,0,
2009-06-20, 03:45:04,VALID,1008.81,VALID,0,VALID,91.0667,VALID,0,VALID,23.4974,VALID,356,VALID,0,
2009-06-20, 03:46:04,VALID,1008.8,VALID,0,VALID,91.082,VALID,0,VALID,23.4992,VALID,356,VALID,0,
2009-06-20, 03:47:04,VALID,1008.77,VALID,0,VALID,91.0744,VALID,0,VALID,23.4992,VALID,356,VALID,0,
2009-06-20, 03:48:04,VALID,1008.77,VALID,0,VALID,91.0744,VALID,0,VALID,23.4992,VALID,356,VALID,0,
2009-06-20, 03:49:04,VALID,1008.75,VALID,0,VALID,91.0744,VALID,0,VALID,23.4797,VALID,356,VALID,0,
2009-06-20, 03:50:04,VALID,1008.75,VALID,0,VALID,91.0667,VALID,0,VALID,23.4797,VALID,356,VALID,0,
2009-06-20, 03:51:04,VALID,1008.76,VALID,0,VALID,91.082,VALID,0,VALID,23.4797,VALID,356,VALID,0,
2009-06-20, 03:52:04,VALID,1008.78,VALID,0,VALID,91.0744,VALID,0,VALID,23.4797,VALID,356,VALID,0,
2009-06-20, 03:53:04,VALID,1008.8,VALID,0,VALID,91.0896,VALID,0,VALID,23.4797,VALID,356,VALID,0,
2009-06-20, 03:54:04,VALID,1008.79,VALID,0,VALID,91.0973,VALID,0,VALID,23.4602,VALID,356,VALID,0,
2009-06-20, 03:55:04,VALID,1008.8,VALID,0,VALID,91.1125,VALID,0,VALID,23.4602,VALID,356,VALID,0,
2009-06-20, 03:56:04,VALID,1008.77,VALID,0,VALID,91.082,VALID,0,VALID,23.4602,VALID,356,VALID,0,
2009-06-20, 03:57:04,VALID,1008.79,VALID,0,VALID,91.0896,VALID,0,VALID,23.4797,VALID,356,VALID,0,
2009-06-20, 03:58:04,VALID,1008.82,VALID,0,VALID,91.1049,VALID,0,VALID,23.4797,VALID,356,VALID,0,